Home > Weather > Centennial > Past weeks

Flag for USA Past Weather in Centennial, Colorado, USA — Yesterday and Last 2 Weeks

Now
60 °F

Broken clouds.


Feels Like: 60 °F
Forecast: 50 / 73 °F
Wind: 6 mph from East

Location: Centennial Airport

Current Time: Aug 24, 2016 at 8:58:53 PM

Latest Report: Aug 24, 2016 at 7:53 PM


Visibility: 10 mi

Pressure: 30.12 "Hg (24.39 "Hg at 1781m altitude)

Humidity: 60%

Dew Point: 46 °F

Location of CentennialLocation

Past Weather in Centennial — Graph

°F

Centennial Temperature Yesterday

Maximum temperature yesterday: 83 °F (at 11:53 AM)
Minimum temperature yesterday: 59 °F (at 3:53 AM)
Average temperature yesterday: 70 °F

High & Low Weather Summary for the Past Weeks

 TemperatureHumidityPressure
High90 °F (Aug 10, 12:53 PM)90% (Aug 19, 5:53 PM)30.23 "Hg (Aug 19, 5:53 PM)
Low48 °F (Aug 20, 4:53 AM)11% (Aug 13, 11:53 AM)29.71 "Hg (Aug 22, 2:53 PM)
Average70 °F40%29.97 "Hg
* Reported Aug 9 6:53 PM — Aug 24 6:53 PM, Centennial, Weather by CustomWeather, © 2016

Note: Actual official high and low records may vary slightly from our data, if they occured in-between our weather recording intervals... More about our weather records

Advertising

Centennial Weather History for the Previous 24 Hours

Scroll right to see more
 ConditionsComfort  
Time TempWeatherWind HumidityBarometerVisibility
6:53 PM
Wed, Aug 24
61 °FPartly sunny.8 mph60%30.11 "Hg10 mi
5:53 PM63 °FBroken clouds.10 mph54%30.08 "Hg10 mi
4:53 PM63 °FBroken clouds.16 mph56%30.08 "Hg10 mi
3:53 PM59 °FLight rain. Mostly cloudy.9 mph75%30.13 "Hg10 mi
2:53 PM58 °FLight rain. Mostly cloudy.5 mph81%30.15 "Hg10 mi
1:53 PM59 °FLight rain. Mostly cloudy.8 mph78%30.15 "Hg10 mi
12:53 PM61 °FLight rain. Mostly cloudy.8 mph67%30.14 "Hg10 mi
11:53 AM61 °FLight rain. Mostly cloudy.6 mph67%30.15 "Hg10 mi
10:53 AM61 °FMostly cloudy.12 mph65%30.14 "Hg10 mi
9:53 AM61 °FMostly cloudy.10 mph58%30.13 "Hg10 mi
8:53 AM65 °FMostly cloudy.3 mph44%30.07 "Hg10 mi
7:53 AM64 °FMostly cloudy.3 mph45%30.05 "Hg10 mi
6:53 AM61 °FMostly cloudy.No wind52%30.04 "Hg10 mi
5:53 AM63 °FMostly cloudy.5 mph45%30.01 "Hg10 mi
4:53 AM62 °FMostly cloudy.6 mph48%29.99 "Hg10 mi
3:53 AM62 °FMostly cloudy.8 mph48%30.00 "Hg10 mi
2:53 AM63 °FMostly cloudy.9 mph47%29.99 "Hg10 mi
1:53 AM62 °FOvercast.13 mph52%29.99 "Hg10 mi
12:53 AM63 °FMostly cloudy.14 mph48%29.99 "Hg10 mi
11:53 PM
Tue, Aug 23
63 °FMostly cloudy.13 mph48%30.01 "Hg10 mi
10:53 PM64 °FMostly cloudy.15 mph47%29.99 "Hg10 mi
9:53 PM63 °FDrizzle. Mostly cloudy.16 mph52%30.00 "Hg10 mi
8:53 PM67 °FMostly cloudy.10 mph39%30.00 "Hg10 mi
Weather by CustomWeather, © 2016

See weather overviewHow to use our weather pages